Regional Weather Roundup
Issued by NWS State College, PA

Home | Current Version | Previous Version | Text Only | Print | Product List | Glossary On
Versions: 1 2 3 4 5 6 7 8 9 10 11 12 13 14 15 16 17 18 19 20 21 22 23 24 25 26 27 28 29 30 31 32 33 34 35 36 37 38 39 40 41 42 43 44 45 46 47 48 49 50
000
ASUS41 KCTP 270710
RWRCTP

REGIONAL WEATHER ROUNDUP
NATIONAL WEATHER SERVICE STATE COLLEGE PA
300 AM EDT FRI MAR 27 2015

Note: "fair" indicates few or no clouds below 12,000 feet with no
significant weather and/or obstructions to visibility.

* = STATION THAT DOES NOT REPORT PRECIPITATION /E.G. RAIN...SNOW...ETC/
    THUNDER OR FOG.

PAZ002>004-007>009-013>016-020>023-029>032-270800-
WESTERN PENNSYLVANIA

CITY           SKY/WX    TMP DP  RH WIND       PRES   REMARKS
ERIE           CLOUDY    33  29  85 W7        29.87R
MEADVILLE      CLOUDY    33  30  88 W5        29.84R FOG
FRANKLIN*      CLOUDY    32  28  86 W7        29.85S
NEW CASTLE     PTSUNNY   33  33 100 CALM      29.88R FOG
BEAVER COUNTY  NOT AVBL
BUTLER*        CLOUDY    34  30  86 CALM      29.87S
PITTSBURGH INT CLOUDY    35  32  88 W6        29.86S FOG
PITTSBURGH     CLOUDY    35  30  82 NW6       29.85R
INDIANA*       CLOUDY    36  34  93 NW5       29.88R
LATROBE        CLOUDY    36  36 100 NW6       29.88R
WASHINGTON CO* CLOUDY    36  30  80 W3        29.88S
$$

PAZ004>006-010>012-017>019-024>028-033>037-041-042-045-046-049>053-270800-
CENTRAL PENNSYLVANIA

CITY           SKY/WX    TMP DP  RH WIND       PRES   REMARKS
BRADFORD       CLOUDY    31  26  82 NW8       29.77F
DUBOIS         CLOUDY    34  30  85 W7        29.79S FOG
CLEARFIELD     CLOUDY    34  28  79 W6        29.81F
JOHNSTOWN      CLOUDY    32  30  92 NW12      29.78R
ALTOONA        CLOUDY    37  30  75 NW12      29.81R
STATE COLLEGE  CLOUDY    37  31  78 NW5       29.79F
WILLIAMSPORT   CLOUDY    40  31  70 NW6       29.79S
SELINSGROVE    LGT RAIN  42  36  79 N3        29.79F
FT INDIANTOWN  DRIZZLE   43  36  76 VRB2      29.78R
CAPITAL CITY   LGT RAIN  44  37  76 W3        29.79S
HARRISBURG     LGT RAIN  44  38  79 NW7       29.79R
YORK           LGT RAIN  43  38  82 NW9       29.79R
$$

PAZ038>040-043-044-047-048-054-055-060>062-067>071-270800-
EASTERN PENNSYLVANIA

CITY           SKY/WX    TMP DP  RH WIND       PRES   REMARKS
SCRANTON       CLOUDY    38  32  79 N7        29.78R
MOUNT POCONO   CLOUDY    34  30  85 NW20G26   29.70R
ALLENTOWN      LGT RAIN  41  35  79 NW10      29.75R
QUAKERTOWN*    CLOUDY    39  37  93 N8G17     29.77R
READING        LGT RAIN  42  37  82 NW6       29.78R
LANCASTER      LGT RAIN  42  38  85 N5        29.78R
COATESVILLE    HVY RAIN  41  41 100 NW14      29.76S
POTTSTOWN      RAIN      41  40  96 NW6       29.78R
BLUE BELL      CLOUDY    43  41  93 NW6       29.75R
DOYLESTOWN     RAIN      40  39  97 NW13G18   29.74R
WILLOW GROVE   NOT AVBL
NORTH PHILA    LGT RAIN  45  38  76 NW13      29.75R
PHILADELPHIA   LGT RAIN  45  40  82 W13       29.79R
$$


USA.gov is the U.S. government's official web portal to all federal, state and local government web resources and services.